TimeCST,TemperatureF,Dew PointF,Humidity,Sea Level PressureIn,VisibilityMPH,Wind Direction,Wind SpeedMPH,Gust SpeedMPH,PrecipitationIn,Events,Conditions,WindDirDegrees,DateUTC
12:53 AM,51.1,46.0,83,30.12,10.0,SSE,4.6,-,N/A,,Clear,160,2012-11-20 06:53:00
1:53 AM,50.0,45.0,83,30.14,10.0,Calm,Calm,-,N/A,,Clear,0,2012-11-20 07:53:00
2:53 AM,46.9,44.1,90,30.14,10.0,SSE,3.5,-,N/A,,Clear,160,2012-11-20 08:53:00
3:53 AM,48.0,45.0,89,30.14,10.0,South,4.6,-,N/A,,Clear,170,2012-11-20 09:53:00
4:53 AM,48.9,45.0,86,30.15,9.0,South,3.5,-,N/A,,Clear,190,2012-11-20 10:53:00
5:53 AM,48.0,45.0,89,30.16,9.0,Calm,Calm,-,N/A,,Clear,0,2012-11-20 11:53:00
6:53 AM,43.0,41.0,93,30.17,6.0,Calm,Calm,-,N/A,,Clear,0,2012-11-20 12:53:00
7:09 AM,42.8,41.0,93,30.18,1.8,Calm,Calm,-,N/A,Fog,Shallow Fog,0,2012-11-20 13:09:00
7:17 AM,42.8,42.8,100,30.19,2.5,North,3.5,-,N/A,Fog,Shallow Fog,350,2012-11-20 13:17:00
7:25 AM,42.8,42.8,100,30.19,4.0,Calm,Calm,-,N/A,Fog,Shallow Fog,0,2012-11-20 13:25:00
7:53 AM,46.9,44.1,90,30.19,6.0,Calm,Calm,-,N/A,,Partly Cloudy,0,2012-11-20 13:53:00
8:53 AM,53.1,48.9,86,30.20,6.0,Calm,Calm,-,N/A,,Clear,0,2012-11-20 14:53:00
9:53 AM,59.0,52.0,78,30.22,8.0,NNW,4.6,-,N/A,,Clear,340,2012-11-20 15:53:00
10:53 AM,64.0,53.1,67,30.22,10.0,North,3.5,-,N/A,,Clear,360,2012-11-20 16:53:00
11:53 AM,68.0,51.1,55,30.19,10.0,Calm,Calm,-,N/A,,Clear,0,2012-11-20 17:53:00
12:53 PM,71.6,48.2,43,30.17,10.0,NNW,4.6,-,N/A,,Clear,340,2012-11-20 18:53:00
1:53 PM,73.0,42.1,33,30.15,10.0,NNW,6.9,-,N/A,,Clear,330,2012-11-20 19:53:00
2:53 PM,73.0,41.0,31,30.14,10.0,North,5.8,-,N/A,,Clear,360,2012-11-20 20:53:00
3:53 PM,72.0,42.1,34,30.15,10.0,NNW,5.8,-,N/A,,Clear,340,2012-11-20 21:53:00
4:53 PM,66.9,42.1,40,30.15,10.0,North,4.6,-,N/A,,Clear,360,2012-11-20 22:53:00
5:53 PM,61.0,42.1,50,30.17,10.0,NNE,5.8,-,N/A,,Clear,20,2012-11-20 23:53:00
6:53 PM,63.0,44.1,50,30.18,10.0,NE,5.8,-,N/A,,Clear,40,2012-11-21 00:53:00
7:53 PM,59.0,43.0,55,30.19,10.0,Calm,Calm,-,N/A,,Clear,0,2012-11-21 01:53:00
8:53 PM,51.1,42.1,71,30.20,10.0,Calm,Calm,-,N/A,,Clear,0,2012-11-21 02:53:00
9:53 PM,51.1,42.1,71,30.21,10.0,Calm,Calm,-,N/A,,Clear,0,2012-11-21 03:53:00
10:53 PM,48.9,43.0,80,30.21,10.0,Calm,Calm,-,N/A,,Clear,0,2012-11-21 04:53:00
11:53 PM,48.0,41.0,77,30.22,10.0,Calm,Calm,-,N/A,,Clear,0,2012-11-21 05:53:00